PBO Station Position Time Series. Reference Frame : NAM14
Format Version,1.1.0
4-character ID,BOMG
Station name,Bombay_Beach
Begin Date, 2009-02-07
End Date, 2019-10-07
Release Date, 2019-10-08
Reference position, 33.3646290161 North Latitude, -115.7297054018 East Longitude, -84.24017 meters elevation,
Date, North (mm), East (mm), Vertical (mm), North Std. Deviation (mm), East Std. Deviation (mm),              Vertical Std. Deviation (mm), Quality,
2009-02-07,0.00, 0.00, 0.00, 1.88, 1.63, 7.26, repro,
2009-02-08,0.61, 0.30, -1.90, 1.87, 1.63, 7.21, repro,
2009-02-09,-1.73, -0.66, 4.56, 1.90, 1.68, 7.43, repro,
2009-02-10,1.85, -0.74, -2.64, 1.86, 1.64, 7.18, repro,
2009-02-11,-0.15, 0.72, -0.42, 1.89, 1.68, 7.36, repro,
2009-02-12,0.28, 1.56, 3.49, 1.89, 1.68, 7.36, repro,
2009-02-13,0.09, 2.12, -3.40, 1.88, 1.67, 7.38, repro,
2009-02-14,0.15, -0.24, -3.00, 1.86, 1.65, 7.27, repro,
2009-02-15,0.73, 0.26, 0.56, 1.87, 1.67, 7.38, repro,
2009-02-16,0.39, -0.34, 5.31, 1.88, 1.64, 7.28, repro,
2009-02-17,-0.32, -0.10, 3.59, 1.92, 1.66, 7.44, repro,
2009-02-18,1.51, 0.65, 5.29, 1.89, 1.71, 7.56, repro,
2009-02-19,2.33, -0.29, -0.45, 1.87, 1.67, 7.38, repro,
2009-02-20,0.64, -0.47, -3.26, 1.84, 1.64, 7.24, repro,
2009-02-21,-0.45, -0.15, -6.53, 1.87, 1.66, 7.40, repro,
2009-02-22,-0.03, 2.09, -0.33, 1.87, 1.64, 7.26, repro,
2009-02-23,1.78, -0.16, -7.60, 1.91, 1.67, 7.50, repro,
2009-02-24,2.56, -0.46, -6.45, 1.94, 1.74, 7.74, repro,
2009-02-25,-0.09, 0.89, -1.26, 160.08, 55.98, 140.61, repro,
2009-02-26,0.96, -0.67, 1.55, 1.88, 1.68, 7.40, repro,
2009-02-27,0.83, 1.22, -6.73, 1.91, 1.71, 7.61, repro,
2009-02-28,1.25, -0.04, -2.61, 1.89, 1.66, 7.38, repro,
2009-03-01,1.32, 0.49, -2.26, 1.91, 1.70, 7.55, repro,
2009-03-02,1.54, 0.46, -3.20, 1.89, 1.68, 7.46, repro,
2009-03-03,3.05, 0.05, -0.70, 1.93, 1.75, 7.76, repro,
2009-03-04,-0.07, -3.26, 2.77, 1.87, 1.65, 7.27, repro,
2009-03-05,0.97, -2.87, 3.22, 1.91, 1.68, 7.44, repro,
2009-03-06,1.81, -0.36, 5.74, 1.94, 1.73, 7.51, repro,
2009-03-07,2.10, -0.86, 7.46, 1.86, 1.64, 7.24, repro,
2009-03-08,1.21, 0.53, 3.92, 1.85, 1.63, 7.20, repro,
2009-03-09,-0.36, 1.24, 4.37, 1.89, 1.67, 7.43, repro,
2009-03-10,-0.19, -0.47, 0.72, 1.85, 1.65, 7.22, repro,
2009-03-11,1.02, -0.74, 2.60, 1.87, 1.64, 7.19, repro,
2009-03-12,1.80, -1.20, 2.06, 1.87, 1.64, 7.23, repro,
2009-03-13,0.52, -0.71, 2.14, 1.88, 1.65, 7.34, repro,
2009-03-14,1.47, 0.72, 4.18, 1.87, 1.66, 7.30, repro,
2009-03-15,2.54, -0.48, 3.06, 1.86, 1.64, 7.23, repro,
2009-03-16,0.65, -0.60, -3.57, 1.89, 1.67, 7.36, repro,
2009-03-17,1.17, -0.26, 4.60, 1.87, 1.64, 7.20, repro,
2009-03-18,1.74, 0.49, -3.75, 1.88, 1.64, 7.26, repro,
2009-03-19,1.45, 0.11, -0.01, 1.88, 1.65, 7.30, repro,
2009-03-20,2.03, -0.12, 5.54, 1.85, 1.65, 7.21, repro,
2009-03-21,1.87, -0.49, 1.02, 1.86, 1.64, 7.17, repro,
2009-03-22,-0.04, 0.29, 3.00, 1.93, 1.70, 7.38, repro,
2009-03-23,1.26, -0.51, 1.42, 1.88, 1.63, 7.24, repro,
2009-03-24,-0.01, 0.66, 8.67, 1.88, 1.64, 7.24, repro,
2009-03-25,0.95, 0.20, 1.81, 1.86, 1.65, 7.22, repro,
2009-03-26,0.11, -1.32, 7.45, 1.88, 1.65, 7.26, repro,
2009-03-27,2.59, 0.59, 4.63, 1.90, 1.64, 7.29, repro,
2009-03-28,1.32, -0.52, -0.90, 1.90, 1.63, 7.29, repro,
2009-03-29,0.40, 0.21, 6.18, 1.92, 1.65, 7.34, repro,
2009-03-30,-0.43, -1.82, 6.65, 1.90, 1.65, 7.26, repro,
2009-03-31,0.41, -0.30, 2.78, 1.91, 1.66, 7.34, repro,
2009-04-01,0.87, -0.58, 8.57, 1.92, 1.65, 7.36, repro,
2009-04-02,0.19, -0.22, 5.82, 1.96, 1.71, 7.55, repro,
2009-04-03,-0.10, 0.26, 7.93, 1.96, 1.71, 7.55, repro,
2009-04-04,0.35, -0.24, 6.02, 1.90, 1.63, 7.24, repro,
2009-04-05,0.49, -0.11, -3.76, 1.91, 1.66, 7.35, repro,
2009-04-06,0.76, 0.10, -3.17, 1.91, 1.65, 7.36, repro,
2009-04-07,0.52, -0.67, -5.31, 1.91, 1.64, 7.33, repro,
2009-04-08,-2.59, -1.65, 4.82, 1.91, 1.64, 7.33, repro,
2009-04-09,-1.50, -0.45, 7.25, 1.92, 1.64, 7.32, repro,
2009-04-10,-0.71, 0.21, 4.12, 1.92, 1.65, 7.32, repro,
2009-04-11,-0.05, -0.41, 6.52, 1.97, 1.70, 7.55, repro,
2009-04-12,0.24, 0.06, -0.17, 1.94, 1.67, 7.44, repro,
2009-04-13,0.30, 0.10, -6.69, 1.96, 1.68, 7.44, repro,
2009-04-14,0.69, -1.22, 2.68, 1.93, 1.64, 7.31, repro,
2009-04-15,-0.79, -1.48, 4.45, 1.94, 1.65, 7.35, repro,
2009-04-16,0.22, 0.27, -1.46, 1.93, 1.66, 7.43, repro,
2009-04-17,-0.28, 0.87, 1.85, 1.92, 1.66, 7.37, repro,
2009-04-18,0.62, 0.76, -6.76, 1.93, 1.65, 7.32, repro,
2009-04-19,0.18, -1.45, 2.93, 1.91, 1.64, 7.27, repro,
2009-04-20,0.32, -0.87, 2.55, 1.93, 1.64, 7.32, repro,
2009-04-21,-0.87, 0.26, -0.25, 1.93, 1.64, 7.37, repro,
2009-04-22,0.39, 0.03, 2.23, 1.93, 1.67, 7.42, repro,
2009-04-23,-0.12, -0.58, -0.95, 1.99, 1.70, 7.54, repro,
2009-04-24,0.30, 0.20, -4.60, 1.99, 1.69, 7.50, repro,
2009-04-25,-0.67, -2.84, 5.92, 1.95, 1.65, 7.41, repro,
2009-04-26,-1.60, -1.07, 4.10, 1.94, 1.63, 7.34, repro,
2009-04-27,-1.45, -0.64, 8.23, 1.92, 1.63, 7.33, repro,
2009-04-28,-1.53, 0.43, -7.97, 1.97, 1.64, 7.38, repro,
2009-04-29,-0.29, 1.62, -1.34, 2.01, 1.76, 7.62, repro,
2009-04-30,-0.61, 0.67, -4.19, 1.97, 1.70, 7.44, repro,
2009-05-01,-2.19, 0.37, 2.04, 1.94, 1.65, 7.37, repro,
2009-05-02,-1.89, 1.07, -1.82, 1.96, 1.65, 7.49, repro,
2009-05-03,-1.48, 0.64, 4.94, 1.93, 1.65, 7.40, repro,
2009-05-04,-0.22, 0.97, -2.60, 1.97, 1.68, 7.50, repro,
2009-05-05,0.35, 2.32, -0.10, 1.93, 1.64, 7.38, repro,
2009-05-06,-0.86, 1.61, -4.15, 1.95, 1.65, 7.45, repro,
2009-05-07,-1.07, 0.33, 1.62, 1.92, 1.64, 7.39, repro,
2009-05-08,-1.38, 0.35, 6.54, 1.92, 1.64, 7.43, repro,
2009-05-09,-0.20, 0.93, 3.61, 1.89, 1.63, 7.35, repro,
2009-05-10,1.18, 1.03, 0.83, 1.91, 1.63, 7.35, repro,
2009-05-11,-0.78, 0.44, 3.32, 1.89, 1.61, 7.28, repro,
2009-05-12,-1.48, 0.78, 4.98, 1.97, 1.68, 7.63, repro,
2009-05-13,-1.32, -0.50, -1.83, 1.95, 1.69, 7.59, repro,
2009-05-14,-0.60, 0.15, 1.36, 1.90, 1.62, 7.42, repro,
2009-05-15,-0.68, 0.90, 1.73, 1.92, 1.65, 7.54, repro,
2009-05-16,-1.46, 0.62, -4.89, 1.90, 1.64, 7.42, repro,
2009-05-17,-0.57, 0.66, -3.72, 1.92, 1.65, 7.48, repro,
2009-05-18,-0.91, 0.73, 2.40, 1.92, 1.66, 7.51, repro,
2009-05-19,-0.54, 0.49, -3.64, 1.94, 1.70, 7.73, repro,
2009-05-20,0.19, 1.75, -3.03, 1.91, 1.63, 7.47, repro,
2009-05-21,0.60, 1.80, -0.92, 1.91, 1.64, 7.47, repro,
2009-05-22,-1.17, 0.97, -1.08, 1.89, 1.62, 7.32, repro,
2009-05-23,-0.89, 0.19, -2.40, 1.91, 1.65, 7.48, repro,
2009-05-24,-2.47, 0.42, -0.05, 1.92, 1.61, 7.38, repro,
2009-05-25,-0.42, 0.58, 5.02, 1.89, 1.62, 7.41, repro,
2009-05-26,-1.05, 0.47, 4.52, 1.90, 1.62, 7.45, repro,
2009-05-27,-2.02, 1.39, 4.88, 1.90, 1.62, 7.45, repro,
2009-05-28,-1.38, 1.87, 0.14, 1.92, 1.61, 7.51, repro,
2009-05-29,1.04, 1.95, -5.87, 1.90, 1.64, 7.42, repro,
2009-05-30,-2.45, -0.02, -3.60, 1.91, 1.63, 7.49, repro,
2009-05-31,0.15, -0.01, 2.36, 1.89, 1.62, 7.39, repro,
2009-06-01,-0.68, 1.31, 1.41, 1.91, 1.64, 7.57, repro,
2009-06-02,0.01, 1.71, 0.88, 1.92, 1.64, 7.55, repro,
2009-06-03,-0.95, 3.12, -0.99, 1.91, 1.61, 7.47, repro,
2009-06-04,1.46, 0.80, -5.05, 1.92, 1.64, 7.50, repro,
2009-06-05,-2.83, 2.43, 13.14, 1.93, 1.64, 7.49, repro,
2009-06-06,-0.71, 0.35, 5.79, 1.95, 1.69, 7.60, repro,
2009-06-07,-3.07, 1.36, 0.80, 1.91, 1.63, 7.46, repro,
2009-06-08,-1.87, 2.84, 4.78, 1.90, 1.63, 7.43, repro,
2009-06-09,0.06, 0.45, 1.96, 1.89, 1.63, 7.37, repro,
2009-06-10,-1.97, 1.54, 2.71, 1.91, 1.65, 7.51, repro,
2009-06-11,-1.77, 0.60, 8.40, 1.93, 1.64, 7.45, repro,
2009-06-12,-2.14, 1.70, 1.14, 1.92, 1.64, 7.49, repro,
2009-06-13,-3.22, 0.51, -3.35, 1.95, 1.69, 7.55, repro,
2009-06-14,-2.03, 1.17, -0.40, 1.93, 1.69, 7.52, repro,
2009-06-15,-2.54, 2.67, 2.83, 1.89, 1.64, 7.45, repro,
2009-06-16,-2.66, 2.63, 9.03, 1.91, 1.65, 7.48, repro,
2009-06-17,-2.38, 1.86, 1.67, 1.91, 1.65, 7.44, repro,
2009-06-18,-1.01, 1.54, 3.64, 1.91, 1.65, 7.42, repro,
2009-06-19,-0.87, 1.81, 0.24, 1.93, 1.63, 7.61, repro,
2009-06-20,-0.13, 3.55, -1.87, 1.95, 1.65, 7.65, repro,
2009-06-21,-0.83, 1.38, 0.86, 1.90, 1.63, 7.48, repro,
2009-06-22,-1.68, 1.34, 8.43, 1.90, 1.62, 7.43, repro,
2009-06-23,-0.68, 2.27, 0.29, 1.90, 1.62, 7.40, repro,
2009-06-24,-0.96, 1.74, -11.23, 1.92, 1.66, 7.54, repro,
2009-06-25,-2.05, 1.96, -8.09, 1.93, 1.68, 7.63, repro,
2009-06-26,-0.36, 2.53, -4.80, 1.93, 1.71, 7.73, repro,
2009-06-27,-0.24, 2.69, -2.02, 1.96, 1.77, 7.75, repro,
2009-06-28,-3.15, 3.06, -4.06, 1.94, 1.68, 7.66, repro,
2009-06-29,-3.18, 1.85, 0.02, 1.95, 1.71, 7.71, repro,
2009-06-30,-1.13, 1.56, 2.83, 1.91, 1.66, 7.54, repro,
2009-07-01,0.79, 2.09, 0.32, 1.91, 1.68, 7.64, repro,
2009-07-02,-0.61, 2.51, 0.71, 1.92, 1.63, 7.54, repro,
2009-07-03,-0.36, 3.10, -0.94, 1.90, 1.63, 7.48, repro,
2009-07-04,-3.11, 2.31, -2.61, 1.93, 1.65, 7.62, repro,
2009-07-05,-1.92, 3.42, 3.99, 1.90, 1.62, 7.43, repro,
2009-07-06,-0.46, 2.59, 2.06, 1.90, 1.65, 7.51, repro,
2009-07-07,-0.13, 1.84, 11.11, 1.91, 1.65, 7.63, repro,
2009-07-08,0.06, 1.35, 5.85, 1.91, 1.64, 7.57, repro,
2009-07-09,-0.37, 2.99, -1.46, 1.89, 1.62, 7.46, repro,
2009-07-10,-1.96, 2.79, 3.15, 1.89, 1.63, 7.45, repro,
2009-07-11,-0.84, 1.81, 10.98, 1.89, 1.65, 7.44, repro,
2009-07-12,-0.47, 2.65, -0.17, 1.90, 1.66, 7.50, repro,
2009-07-13,0.26, 2.04, 7.73, 1.89, 1.63, 7.48, repro,
2009-07-14,-0.72, 1.78, 6.12, 1.91, 1.65, 7.60, repro,
2009-07-15,-1.67, 2.47, -2.08, 1.89, 1.67, 7.52, repro,
2009-07-16,-0.87, 0.37, 7.71, 1.89, 1.62, 7.42, repro,
2009-07-17,-0.16, 2.05, 3.18, 1.89, 1.62, 7.43, repro,
2009-07-18,0.09, 3.46, -6.34, 1.88, 1.62, 7.39, repro,
2009-07-19,-1.02, 2.12, 3.34, 1.94, 1.66, 7.72, repro,
2009-07-20,-0.65, 2.74, 4.06, 1.89, 1.63, 7.44, repro,
2009-07-21,-0.55, 2.07, -0.50, 1.91, 1.64, 7.52, repro,
2009-07-22,-1.81, 1.63, 11.09, 1.88, 1.62, 7.35, repro,
2009-07-23,0.87, 3.13, 3.34, 1.90, 1.63, 7.46, repro,
2009-07-24,1.38, -0.29, 4.44, 1.95, 1.70, 7.65, repro,
2009-07-25,-0.18, 1.87, -7.27, 1.96, 1.69, 7.67, repro,
2009-07-26,-2.44, 1.38, -3.44, 1.92, 1.67, 7.52, repro,
2009-07-27,0.16, 2.35, -7.97, 1.93, 1.65, 7.55, repro,
2009-07-28,-1.49, 0.68, 1.59, 1.89, 1.62, 7.36, repro,
2009-07-29,-0.60, 0.70, -1.06, 1.90, 1.63, 7.41, repro,
2009-07-30,-1.74, 1.35, 2.98, 1.97, 1.66, 7.72, repro,
2009-07-31,0.49, 1.48, -4.82, 1.90, 1.64, 7.46, repro,
2009-08-01,-0.60, 0.99, 4.16, 1.89, 1.63, 7.36, repro,
2009-08-02,1.09, 0.97, 5.34, 1.90, 1.63, 7.39, repro,
2009-08-03,0.65, 2.40, -7.09, 1.91, 1.64, 7.39, repro,
2009-08-04,0.38, 1.92, -10.25, 1.92, 1.67, 7.51, repro,
2009-08-05,0.06, 1.46, -10.38, 1.95, 1.66, 7.55, repro,
2009-08-06,0.85, 0.46, -3.04, 1.90, 1.67, 7.42, repro,
2009-08-07,0.95, -0.85, 1.11, 2.14, 1.81, 8.23, repro,
2009-08-08,-2.69, 1.30, -2.84, 1.90, 1.63, 7.35, repro,
2009-08-09,-0.73, 1.56, -4.29, 1.89, 1.63, 7.29, repro,
2009-08-10,0.52, 1.16, 1.44, 1.89, 1.63, 7.36, repro,
2009-08-11,1.50, -0.72, -5.22, 1.91, 1.65, 7.44, repro,
2009-08-12,0.63, 3.25, 1.62, 1.88, 1.64, 7.28, repro,
2009-08-13,-0.06, 3.93, -1.83, 1.92, 1.65, 7.35, repro,
2009-08-14,0.93, 0.78, -0.38, 1.93, 1.67, 7.37, repro,
2009-08-15,0.06, 2.66, 1.24, 1.90, 1.63, 7.32, repro,
2009-08-16,-0.19, 1.91, 2.09, 1.91, 1.64, 7.43, repro,
2009-08-17,0.36, 1.00, 4.59, 1.90, 1.62, 7.30, repro,
2009-08-18,-0.03, 1.40, 4.59, 1.91, 1.62, 7.36, repro,
2009-08-19,-0.33, -0.58, 7.57, 1.89, 1.61, 7.22, repro,
2009-08-20,-0.75, 0.72, 2.09, 1.89, 1.64, 7.25, repro,
2009-08-21,-2.47, 2.00, 4.43, 1.96, 1.70, 7.69, repro,
2009-08-22,0.50, 0.92, 0.55, 1.96, 1.69, 7.62, repro,
2009-08-23,-0.13, 2.60, 4.11, 2.04, 1.72, 8.02, repro,
2009-08-24,1.10, 0.64, -2.97, 1.97, 1.71, 7.71, repro,
2009-08-25,-0.23, 0.66, 4.09, 1.96, 1.72, 7.74, repro,
2009-08-26,-3.79, 1.88, -1.59, 1.95, 1.68, 7.67, repro,
2009-08-27,-0.99, 1.02, -1.24, 1.96, 1.70, 7.68, repro,
2009-08-28,-0.28, 2.00, 2.15, 1.88, 1.64, 7.29, repro,
2009-08-29,-0.66, 0.86, 2.31, 1.91, 1.64, 7.44, repro,
2009-08-30,-1.23, 0.27, 2.02, 1.91, 1.64, 7.48, repro,
2009-08-31,-2.30, 0.49, 8.38, 1.93, 1.66, 7.50, repro,
2009-09-01,-1.45, 1.92, 1.97, 1.98, 1.67, 7.61, repro,
2009-09-02,-0.59, 2.84, 0.90, 1.91, 1.63, 7.39, repro,
2009-09-03,0.98, 0.89, 6.05, 1.91, 1.64, 7.42, repro,
2009-09-04,-0.28, 2.09, 1.19, 1.91, 1.64, 7.44, repro,
2009-09-05,-1.05, 1.44, -2.00, 1.91, 1.69, 7.47, repro,
2009-09-06,-3.07, 0.36, 6.54, 2.12, 1.81, 8.12, repro,
2009-09-07,-0.46, 2.75, -10.25, 1.97, 1.69, 7.77, repro,
2009-09-08,-1.01, 3.88, 11.30, 1.91, 1.65, 7.50, repro,
2009-09-09,-0.09, 3.22, 10.78, 1.90, 1.65, 7.48, repro,
2009-09-10,0.12, 4.01, -0.86, 1.89, 1.66, 7.36, repro,
2009-09-11,-0.21, 3.61, 4.62, 1.88, 1.65, 7.33, repro,
2009-09-12,-1.97, 3.63, 6.12, 1.88, 1.64, 7.35, repro,
2009-09-13,-1.56, 2.43, 11.24, 1.91, 1.70, 7.53, repro,
2009-09-14,2.35, 3.52, 10.71, 1.91, 1.66, 7.46, repro,
2009-09-15,0.16, 1.01, -4.65, 1.88, 1.63, 7.33, repro,
2009-09-16,0.62, 4.16, -1.56, 1.87, 1.63, 7.30, repro,
2009-09-17,-1.48, 4.00, -0.34, 1.86, 1.64, 7.28, repro,
2009-09-18,-1.67, 4.13, 1.96, 1.92, 1.68, 7.45, repro,
2009-09-19,0.56, 3.75, 6.16, 1.86, 1.63, 7.26, repro,
2009-09-20,-0.28, 3.77, 1.99, 1.88, 1.64, 7.34, repro,
2009-09-21,1.07, 3.62, -5.31, 1.87, 1.64, 7.30, repro,
2009-09-22,-1.02, 5.03, -7.41, 1.91, 1.67, 7.41, repro,
2009-09-23,1.39, 4.15, -3.59, 1.90, 1.66, 7.35, repro,
2009-09-24,0.02, 3.66, -2.33, 1.88, 1.64, 7.30, repro,
2009-09-25,-1.01, 4.23, 10.11, 1.90, 1.69, 7.35, repro,
2009-09-26,-0.87, 3.68, 0.73, 1.86, 1.64, 7.27, repro,
2009-09-27,-1.89, 3.69, 2.77, 1.88, 1.64, 7.35, repro,
2009-09-28,-1.51, 4.02, 5.21, 1.95, 1.68, 7.59, repro,
2009-09-29,-1.65, 2.70, 4.58, 1.94, 1.69, 7.51, repro,
2009-09-30,-2.99, 3.75, 11.65, 1.88, 1.68, 7.41, repro,
2009-10-01,-1.40, 3.71, 3.28, 1.87, 1.64, 7.31, repro,
2009-10-02,-2.25, 3.74, -6.00, 1.87, 1.64, 7.34, repro,
2009-10-03,-3.49, 5.17, 2.17, 1.87, 1.64, 7.36, repro,
2009-10-04,-3.34, 1.07, -0.19, 1.87, 1.64, 7.31, repro,
2009-10-05,-1.44, 3.41, 0.28, 1.85, 1.62, 7.21, repro,
2009-10-06,-1.24, 4.17, 4.17, 1.87, 1.64, 7.29, repro,
2009-10-07,-1.28, 3.48, 5.48, 1.86, 1.64, 7.30, repro,
2009-10-08,-2.60, 5.08, 3.88, 1.94, 1.66, 7.52, repro,
2009-10-09,-1.90, 4.16, 0.47, 1.85, 1.63, 7.26, repro,
2009-10-10,-2.47, 4.51, 7.31, 1.85, 1.62, 7.20, repro,
2009-10-11,-2.22, 4.05, 5.89, 1.86, 1.63, 7.27, repro,
2009-10-12,-2.90, 2.30, 1.10, 1.88, 1.65, 7.35, repro,
2009-10-13,-2.99, 3.29, 1.11, 1.88, 1.72, 7.47, repro,
2009-10-14,-2.85, 5.69, -6.26, 1.88, 1.66, 7.41, repro,
2009-10-15,-3.32, 3.89, 0.20, 1.90, 1.69, 7.45, repro,
2009-10-16,-2.93, 4.31, -3.82, 1.89, 1.69, 7.37, repro,
2009-10-17,-1.72, 3.39, -5.93, 1.89, 1.69, 7.42, repro,
2009-10-18,-1.20, 3.49, 0.42, 1.91, 1.71, 7.50, repro,
2009-10-19,-1.45, 4.24, -0.49, 1.92, 1.69, 7.44, repro,
2009-10-20,-2.65, 3.15, 6.61, 1.91, 1.76, 7.56, repro,
2009-10-21,-2.99, 3.31, -1.57, 1.91, 1.69, 7.43, repro,
2009-10-22,-2.04, 2.74, 6.58, 1.92, 1.72, 7.48, repro,
2009-10-23,-2.55, 3.19, 0.16, 1.92, 1.72, 7.58, repro,
2009-10-24,-2.14, 3.19, 6.87, 1.93, 1.73, 7.55, repro,
2009-10-25,-1.37, 2.13, 8.15, 1.94, 1.70, 7.45, repro,
2009-10-26,-2.25, 2.72, 9.16, 1.92, 1.74, 7.56, repro,
2009-10-27,-4.35, 3.19, 6.74, 1.89, 1.69, 7.47, repro,
2009-10-28,-4.73, 1.42, -3.38, 1.90, 1.69, 7.51, repro,
2009-10-29,-3.44, 2.50, 7.74, 1.88, 1.69, 7.47, repro,
2009-10-30,-1.73, 2.28, 6.41, 1.92, 1.73, 7.62, repro,
2009-10-31,-2.27, 4.17, 5.07, 1.90, 1.73, 7.51, repro,
2009-11-01,-2.42, 3.33, 3.80, 1.89, 1.70, 7.50, repro,
2009-11-02,-4.92, 3.84, 1.31, 1.91, 1.74, 7.54, repro,
2009-11-03,-2.35, 3.11, -0.16, 1.89, 1.69, 7.49, repro,
2009-11-04,-2.53, 2.64, 0.01, 1.88, 1.70, 7.53, repro,
2009-11-05,-2.29, 2.36, 5.08, 1.99, 1.83, 7.87, repro,
2009-11-06,-2.15, 3.00, 7.76, 1.94, 1.74, 7.62, repro,
2009-11-07,-3.12, 1.74, 6.36, 1.93, 1.73, 7.58, repro,
2009-11-08,-2.33, 2.40, 4.76, 1.91, 1.71, 7.55, repro,
2009-11-09,-3.50, 4.01, 0.65, 1.95, 1.78, 7.71, repro,
2009-11-10,-2.84, 2.65, -1.09, 1.94, 1.77, 7.67, repro,
2009-11-11,-2.91, 3.41, -8.95, 1.89, 1.70, 7.47, repro,
2009-11-12,-4.39, -0.02, 5.03, 1.96, 1.81, 7.74, repro,
2009-11-13,-2.32, 0.58, 3.02, 1.95, 1.76, 7.74, repro,
2009-11-14,-2.76, 2.42, 2.27, 1.94, 1.74, 7.59, repro,
2009-11-15,-1.67, 2.67, -3.31, 1.91, 1.70, 7.47, repro,
2009-11-16,-3.91, 2.53, -0.99, 1.90, 1.71, 7.51, repro,
2009-11-17,-3.90, 3.15, 0.11, 1.96, 1.71, 7.70, repro,
2009-11-18,-4.45, 2.49, 4.00, 1.96, 1.71, 7.72, repro,
2009-11-19,-2.85, 3.26, 8.18, 1.91, 1.70, 7.50, repro,
2009-11-20,-2.24, 2.78, -1.28, 1.90, 1.71, 7.48, repro,
2009-11-21,-3.76, 2.86, 5.16, 1.88, 1.66, 7.36, repro,
2009-11-22,-3.68, 2.74, -3.20, 1.88, 1.70, 7.48, repro,
2009-11-23,-4.40, 2.37, 3.53, 1.86, 1.65, 7.30, repro,
2009-11-24,-2.95, 2.83, -1.15, 1.87, 1.68, 7.41, repro,
2009-11-25,-3.91, 3.08, 1.40, 1.89, 1.69, 7.38, repro,
2009-11-26,-3.03, 3.72, 0.39, 1.89, 1.69, 7.37, repro,
2009-11-27,-2.59, 2.45, 0.11, 1.89, 1.69, 7.43, repro,
2009-11-28,-4.94, 1.53, 8.68, 1.98, 1.75, 7.72, repro,
2009-11-29,-4.87, 0.22, 1.57, 1.91, 1.67, 7.46, repro,
2009-11-30,-5.70, 0.97, 19.48, 1.91, 1.67, 7.46, repro,
2009-12-01,-2.86, 3.25, -0.13, 1.90, 1.65, 7.41, repro,
2009-12-02,-3.25, 2.34, -0.86, 1.87, 1.65, 7.30, repro,
2009-12-03,-3.58, 2.45, -1.92, 1.86, 1.64, 7.23, repro,
2009-12-04,-4.15, 3.20, 1.00, 1.87, 1.63, 7.27, repro,
2009-12-05,-4.99, 3.72, 3.00, 1.89, 1.65, 7.34, repro,
2009-12-06,-3.65, 2.17, -3.16, 1.88, 1.64, 7.34, repro,
2009-12-07,-3.86, 4.55, -3.34, 1.90, 1.67, 7.47, repro,
2009-12-08,-3.92, 1.99, 7.81, 1.90, 1.68, 7.52, repro,
2009-12-09,-3.94, 4.38, 2.71, 1.88, 1.68, 7.40, repro,
2009-12-10,-4.86, 3.77, -0.23, 1.91, 1.66, 7.52, repro,
2009-12-11,-3.76, 4.00, 2.97, 1.92, 1.70, 7.53, repro,
2009-12-12,-5.74, 3.70, -2.45, 1.97, 1.73, 7.76, repro,
2009-12-13,-2.73, 1.83, -4.25, 1.92, 1.68, 7.55, repro,
2009-12-14,-4.16, 4.19, -4.22, 1.91, 1.65, 7.50, repro,
2009-12-15,-3.74, 3.23, -3.75, 1.87, 1.63, 7.28, repro,
2009-12-16,-3.25, 3.23, -7.93, 1.91, 1.66, 7.54, repro,
2009-12-17,-3.64, 2.87, -7.99, 1.93, 1.68, 7.58, repro,
2009-12-18,-3.24, 2.70, -8.05, 1.89, 1.65, 7.35, repro,
2009-12-19,-2.57, 4.74, 2.48, 1.95, 1.69, 7.63, repro,
2009-12-20,-4.61, 2.86, -6.15, 1.88, 1.67, 7.37, repro,
2009-12-21,-4.89, 1.93, -4.39, 1.92, 1.69, 7.55, repro,
2009-12-22,-5.82, 2.95, 0.64, 1.90, 1.71, 7.52, repro,
2009-12-23,-3.19, 2.92, -0.14, 1.88, 1.65, 7.36, repro,
2009-12-24,-3.95, 4.58, -4.40, 1.89, 1.65, 7.40, repro,
2009-12-25,-4.50, 3.53, 0.20, 1.86, 1.62, 7.23, repro,
2009-12-26,-4.39, 3.00, -4.75, 1.90, 1.65, 7.43, repro,
2009-12-27,-4.18, 2.74, -7.55, 1.86, 1.65, 7.36, repro,
2009-12-28,-3.36, 2.73, -8.21, 1.85, 1.65, 7.34, repro,
2009-12-29,-4.73, 3.41, -1.26, 1.87, 1.65, 7.39, repro,
2009-12-30,-4.80, 3.89, 0.97, 1.86, 1.64, 7.29, repro,
2009-12-31,-4.72, 1.52, -3.95, 1.84, 1.63, 7.24, repro,
2010-01-01,-3.51, 4.45, -7.30, 1.86, 1.65, 7.33, repro,
2010-01-02,-4.88, 3.71, -4.00, 1.85, 1.65, 7.31, repro,
2010-01-03,-3.73, 3.60, -4.28, 1.87, 1.65, 7.39, repro,
2010-01-04,-4.78, 3.29, -1.17, 1.85, 1.63, 7.28, repro,
2010-01-05,-5.52, 3.33, -7.28, 1.86, 1.64, 7.35, repro,
2010-01-06,-5.06, 3.09, -5.84, 1.85, 1.63, 7.28, repro,
2010-01-07,-3.95, 3.01, -9.31, 1.87, 1.65, 7.39, repro,
2010-01-08,-4.32, 3.79, -1.82, 1.87, 1.65, 7.41, repro,
2010-01-09,-4.31, 4.33, -8.14, 1.84, 1.63, 7.27, repro,
2010-01-10,-4.13, 3.43, -3.59, 1.86, 1.62, 7.27, repro,
2010-01-11,-4.36, 3.55, -6.42, 1.83, 1.62, 7.24, repro,
2010-01-12,-4.95, 2.56, -4.38, 1.86, 1.63, 7.29, repro,
2010-01-13,-4.18, 3.44, -16.11, 1.89, 1.68, 7.42, repro,
2010-01-14,-7.96, 2.17, -4.04, 1.99, 1.73, 7.89, repro,
2010-01-15,-3.63, 3.96, 1.67, 1.91, 1.65, 7.49, repro,
2010-01-16,-4.80, 3.43, -3.20, 1.86, 1.62, 7.28, repro,
2010-01-17,-5.52, 1.83, -3.56, 1.84, 1.62, 7.27, repro,
2010-01-18,-4.46, 1.84, 6.78, 1.86, 1.64, 7.35, repro,
2010-01-19,-5.29, 0.86, -15.56, 1.93, 1.67, 7.49, repro,
2010-01-20,-5.44, 3.36, -1.87, 1.95, 1.70, 7.55, repro,
2010-01-21,-4.89, 3.13, -11.17, 1.94, 1.69, 7.54, repro,
2010-01-22,-6.89, 2.13, 1.29, 1.89, 1.68, 7.49, repro,
2010-01-23,-7.33, 0.59, -2.88, 1.86, 1.64, 7.31, repro,
2010-01-24,-6.90, 0.66, 0.47, 1.85, 1.63, 7.27, repro,
2010-01-25,-7.66, 0.67, 0.09, 1.86, 1.63, 7.30, repro,
2010-01-26,-8.02, 1.80, -2.71, 1.92, 1.66, 7.37, repro,
2010-01-27,-7.34, 0.82, -5.99, 1.93, 1.68, 7.43, repro,
2010-01-28,-7.12, 1.09, -8.91, 1.90, 1.68, 7.42, repro,
2010-01-29,-7.17, -0.74, -2.51, 1.84, 1.63, 7.23, repro,
2010-01-30,-8.48, -1.05, -2.06, 1.85, 1.62, 7.23, repro,
2010-01-31,-9.26, 0.10, -3.51, 1.87, 1.63, 7.29, repro,
2010-02-01,-8.26, 1.47, 3.11, 1.87, 1.63, 7.27, repro,
2010-02-02,-7.95, 0.44, 2.60, 1.93, 1.67, 7.61, repro,
2010-02-03,-7.61, 0.52, 7.65, 1.87, 1.65, 7.43, repro,
2010-02-04,-8.37, -2.31, 5.94, 1.92, 1.75, 7.77, repro,
2010-02-05,-8.32, -0.46, -0.65, 1.89, 1.68, 7.47, repro,
2010-02-06,-6.19, 1.33, -6.76, 1.89, 1.67, 7.55, repro,
2010-02-07,-9.41, -0.09, -2.25, 1.93, 1.66, 7.58, repro,
2010-02-08,-8.07, -1.58, 1.59, 1.93, 1.67, 7.66, repro,
2010-02-09,-8.02, 0.07, 8.43, 1.90, 1.64, 7.46, repro,
2010-02-10,-7.29, 0.13, -3.62, 1.96, 1.69, 7.72, repro,
2010-02-11,-8.10, -0.36, 0.14, 1.88, 1.66, 7.46, repro,
2010-02-12,-8.51, 0.09, -2.63, 1.88, 1.66, 7.48, repro,
2010-02-13,-9.07, -0.41, 5.46, 1.86, 1.62, 7.29, repro,
2010-02-14,-6.90, -0.06, -2.53, 1.86, 1.63, 7.33, repro,
2010-02-15,-7.69, -0.64, 2.96, 1.87, 1.65, 7.42, repro,
2010-02-16,-10.13, -0.11, 2.88, 1.91, 1.64, 7.41, repro,
2010-02-17,-9.72, -1.25, 1.61, 1.96, 1.71, 7.78, repro,
2010-02-18,-9.37, -0.99, -3.25, 1.97, 1.71, 7.81, repro,
2010-02-19,-8.88, -1.00, 2.21, 1.97, 1.71, 7.81, repro,
2010-02-20,-8.39, -1.59, 1.11, 1.88, 1.63, 7.42, repro,
2010-02-21,-9.42, -1.78, 9.82, 1.85, 1.62, 7.26, repro,
2010-02-22,-8.44, -1.32, 9.60, 1.94, 1.70, 7.57, repro,
2010-02-23,-9.63, -0.19, -8.26, 1.94, 1.71, 7.64, repro,
2010-02-24,-7.48, -1.71, -3.11, 1.92, 1.65, 7.50, repro,
2010-02-25,-8.27, -0.71, 5.09, 1.89, 1.63, 7.41, repro,
2010-02-26,-7.05, -1.29, -1.32, 1.94, 1.71, 7.73, repro,
2010-02-27,-9.89, -1.41, 6.59, 1.93, 1.74, 7.55, repro,
2010-02-28,-9.43, -1.38, 10.19, 1.87, 1.64, 7.38, repro,
2010-03-01,-7.53, -3.09, 2.95, 1.89, 1.66, 7.48, repro,
2010-03-02,-7.72, -1.96, -3.21, 1.89, 1.64, 7.46, repro,
2010-03-03,-8.40, -2.24, 10.62, 1.91, 1.69, 7.61, repro,
2010-03-04,-7.32, -0.72, 5.83, 1.90, 1.67, 7.54, repro,
2010-03-05,-8.88, -1.93, 2.92, 1.88, 1.62, 7.35, repro,
2010-03-06,-7.66, -0.98, 2.62, 1.88, 1.63, 7.39, repro,
2010-03-07,-8.18, -2.88, 2.57, 1.88, 1.63, 7.36, repro,
2010-03-08,-8.30, -2.80, 4.14, 1.90, 1.63, 7.40, repro,
2010-03-09,-10.01, -1.42, 9.67, 1.90, 1.64, 7.40, repro,
2010-03-10,-9.74, -3.54, 6.44, 1.88, 1.63, 7.37, repro,
2010-03-11,-7.13, -3.38, 1.95, 1.88, 1.63, 7.38, repro,
2010-03-12,-8.07, -2.86, 7.26, 1.87, 1.62, 7.35, repro,
2010-03-13,-8.49, -3.49, 5.63, 1.89, 1.63, 7.44, repro,
2010-03-14,-8.65, -3.34, 7.53, 1.89, 1.64, 7.44, repro,
2010-03-15,-9.38, -2.46, -8.47, 1.89, 1.63, 7.38, repro,
2010-03-16,-9.38, -2.20, -3.86, 1.93, 1.65, 7.59, repro,
2010-03-17,-8.08, -1.91, -0.19, 1.91, 1.65, 7.53, repro,
2010-03-18,-7.69, -2.15, 5.06, 1.88, 1.62, 7.38, repro,
2010-03-19,-6.66, -2.98, 11.07, 1.91, 1.64, 7.48, repro,
2010-03-20,-7.48, -3.41, 1.11, 1.89, 1.63, 7.40, repro,
2010-03-21,-9.15, -3.71, 4.41, 1.88, 1.62, 7.37, repro,
2010-03-22,-8.77, -2.84, 5.20, 1.88, 1.61, 7.33, repro,
2010-03-23,-8.58, -2.79, 13.07, 1.90, 1.63, 7.45, repro,
2010-03-24,-9.71, -2.69, 8.43, 1.90, 1.65, 7.47, repro,
2010-03-25,-9.01, -3.49, 3.00, 1.92, 1.67, 7.54, repro,
2010-03-26,-9.01, -3.94, 8.46, 1.91, 1.65, 7.48, repro,
2010-03-27,-9.33, -3.99, 2.56, 1.91, 1.64, 7.44, repro,
2010-03-28,-7.54, -3.21, 1.17, 1.91, 1.65, 7.49, repro,
2010-03-29,-6.70, -2.62, 4.88, 1.98, 1.70, 7.69, repro,
2010-03-30,-8.79, -3.15, 17.55, 2.05, 1.70, 7.80, repro,
2010-03-31,-8.03, -4.46, 7.38, 1.94, 1.71, 7.60, repro,
2010-04-01,-9.30, -5.24, 6.87, 1.93, 1.66, 7.47, repro,
2010-04-02,-8.78, -3.51, 6.75, 1.96, 1.73, 7.72, repro,
2010-04-03,-7.63, -4.23, 8.27, 1.97, 1.72, 7.71, repro,
2010-04-04,-8.35, -3.13, 10.44, 1.97, 1.74, 7.73, repro,
2010-04-05,2.21, 0.43, 13.87, 1.96, 1.69, 7.62, repro,
2010-04-06,-0.72, 0.17, 2.89, 1.95, 1.70, 7.57, repro,